• In Italy
  • List of Countries
  • For 7 days
  • Water Temperature
  • Satellite Maps
  • Weather Map
  • Weather Widgets
  • user-avatar
    Login

    Hourly Weather Lucknow

    Today, 17 January, Wednesday

    Time Temperature Precipitation Wind Pressure Humidity
    00:00 +12°C° 0 mm 0 mps 748 mmHg 61%
    01:00 +12°C° 0 mm 0 mps 748 mmHg 62%
    02:00 +11°C° 0 mm 0 mps 748 mmHg 63%
    03:00 +11°C° 0 mm 0 mps 748 mmHg 65%
    04:00 +11°C° 0 mm 0 mps 748 mmHg 66%
    05:00 +9°C° 0 mm 0 mps 748 mmHg 72%
    06:00 +10°C° 0 mm 0 mps 749 mmHg 69%
    07:00 +11°C° 0 mm 0 mps 749 mmHg 66%
    08:00 +13°C° 0 mm 1 mps 750 mmHg 62%
    09:00 +14°C° 0 mm 0 mps 750 mmHg 55%
    10:00 +16°C° 0 mm 0 mps 750 mmHg 49%
    11:00 +19°C° 0 mm 0 mps 750 mmHg 42%
    12:00 +20°C° 0 mm 0 mps 750 mmHg 39%
    13:00 +23°C° 0 mm 1 mps 749 mmHg 37%
    14:00 +24°C° 0 mm 1 mps 749 mmHg 34%
    15:00 +22°C° 0 mm 1 mps 748 mmHg 38%
    16:00 +21°C° 0 mm 1 mps 748 mmHg 43%
    17:00 +19°C° 0 mm 1 mps 748 mmHg 47%
    18:00 +18°C° 0 mm 1 mps 748 mmHg 49%
    19:00 +16°C° 0 mm 1 mps 749 mmHg 51%
    20:00 +15°C° 0 mm 1 mps 749 mmHg 53%
    21:00 +15°C° 0 mm 1 mps 749 mmHg 54%
    22:00 +15°C° 0 mm 1 mps 749 mmHg 56%
    23:00 +14°C° 0 mm 1 mps 749 mmHg 58%

    Tomorrow, 18 January, Thursday

    Time Temperature Precipitation Wind Pressure Humidity
    00:00 +14°C° 0 mm 1 mps 749 mmHg 59%
    01:00 +14°C° 0 mm 1 mps 749 mmHg 60%
    02:00 +13°C° 0 mm 1 mps 749 mmHg 61%
    03:00 +13°C° 0 mm 1 mps 749 mmHg 62%
    04:00 +13°C° 0 mm 1 mps 748 mmHg 63%
    05:00 +12°C° 0 mm 1 mps 748 mmHg 64%
    06:00 +13°C° 0 mm 1 mps 749 mmHg 63%
    07:00 +14°C° 0 mm 1 mps 749 mmHg 61%
    08:00 +15°C° 0 mm 1 mps 750 mmHg 60%
    09:00 +17°C° 0 mm 2 mps 750 mmHg 53%
    10:00 +19°C° 0 mm 2 mps 750 mmHg 46%
    11:00 +22°C° 0 mm 3 mps 750 mmHg 39%
    12:00 +24°C° 0 mm 3 mps 750 mmHg 37%
    13:00 +25°C° 0 mm 4 mps 749 mmHg 36%
    14:00 +26°C° 0 mm 4 mps 748 mmHg 34%
    15:00 +24°C° 0 mm 3 mps 748 mmHg 39%
    16:00 +21°C° 0 mm 3 mps 748 mmHg 45%
    17:00 +20°C° 0 mm 2 mps 748 mmHg 50%
    18:00 +19°C° 0 mm 2 mps 748 mmHg 52%
    19:00 +18°C° 0 mm 2 mps 748 mmHg 54%
    20:00 +17°C° 0 mm 2 mps 749 mmHg 56%
    21:00 +16°C° 0 mm 2 mps 749 mmHg 57%
    22:00 +16°C° 0 mm 2 mps 749 mmHg 59%
    23:00 +16°C° 0 mm 2 mps 749 mmHg 60%

    Day after tomorrow, 19 January, Friday

    Time Temperature Precipitation Wind Pressure Humidity
    00:00 +15°C° 0 mm 2 mps 749 mmHg 61%
    01:00 +15°C° 0 mm 2 mps 748 mmHg 63%
    02:00 +14°C° 0 mm 2 mps 748 mmHg 64%
    03:00 +14°C° 0 mm 2 mps 748 mmHg 65%
    04:00 +13°C° 0 mm 2 mps 748 mmHg 66%
    05:00 +13°C° 0 mm 2 mps 748 mmHg 66%
    06:00 +12°C° 0 mm 3 mps 748 mmHg 63%
    07:00 +13°C° 0 mm 3 mps 749 mmHg 60%
    08:00 +14°C° 0 mm 3 mps 750 mmHg 57%
    09:00 +17°C° 0 mm 3 mps 750 mmHg 49%
    10:00 +20°C° 0 mm 3 mps 750 mmHg 42%
    11:00 +22°C° 0 mm 4 mps 750 mmHg 34%
    12:00 +23°C° 0 mm 4 mps 749 mmHg 33%
    13:00 +25°C° 0 mm 4 mps 749 mmHg 31%
    14:00 +26°C° 0 mm 4 mps 748 mmHg 30%
    15:00 +23°C° 0 mm 4 mps 748 mmHg 35%
    16:00 +21°C° 0 mm 3 mps 748 mmHg 40%
    17:00 +20°C° 0 mm 2 mps 748 mmHg 45%
    18:00 +19°C° 0 mm 2 mps 748 mmHg 46%
    19:00 +18°C° 0 mm 2 mps 749 mmHg 47%
    20:00 +16°C° 0 mm 2 mps 749 mmHg 48%
    21:00 +16°C° 0 mm 2 mps 749 mmHg 49%
    22:00 +15°C° 0 mm 2 mps 749 mmHg 50%
    23:00 +15°C° 0 mm 2 mps 749 mmHg 51%

    20 January, Saturday

    Time Temperature Precipitation Wind Pressure Humidity
    00:00 +14°C° 0 mm 2 mps 749 mmHg 52%
    01:00 +13°C° 0 mm 3 mps 748 mmHg 53%
    02:00 +12°C° 0 mm 3 mps 748 mmHg 54%
    03:00 +12°C° 0 mm 3 mps 748 mmHg 54%
    04:00 +11°C° 0 mm 3 mps 748 mmHg 55%
    05:00 +11°C° 0 mm 3 mps 747 mmHg 56%
    06:00 +12°C° 0 mm 3 mps 748 mmHg 55%
    07:00 +12°C° 0 mm 3 mps 748 mmHg 54%
    08:00 +13°C° 0 mm 3 mps 749 mmHg 53%
    09:00 +16°C° 0 mm 3 mps 749 mmHg 47%
    10:00 +19°C° 0 mm 3 mps 749 mmHg 41%
    11:00 +21°C° 0 mm 4 mps 749 mmHg 34%
    12:00 +22°C° 0 mm 4 mps 748 mmHg 33%
    13:00 +23°C° 0 mm 4 mps 747 mmHg 32%
    14:00 +25°C° 0 mm 4 mps 747 mmHg 30%
    15:00 +22°C° 0 mm 3 mps 747 mmHg 35%
    16:00 +21°C° 0 mm 3 mps 746 mmHg 40%
    17:00 +19°C° 0 mm 2 mps 746 mmHg 45%
    18:00 +18°C° 0 mm 2 mps 747 mmHg 46%
    19:00 +17°C° 0 mm 2 mps 747 mmHg 47%
    20:00 +16°C° 0 mm 2 mps 748 mmHg 48%
    21:00 +15°C° 0 mm 2 mps 748 mmHg 49%
    22:00 +14°C° 0 mm 2 mps 747 mmHg 50%
    23:00 +14°C° 0 mm 2 mps 747 mmHg 51%

    21 January, Sunday

    Time Temperature Precipitation Wind Pressure Humidity
    00:00 +13°C° 0 mm 2 mps 747 mmHg 51%
    01:00 +13°C° 0 mm 2 mps 747 mmHg 52%
    02:00 +13°C° 0 mm 2 mps 747 mmHg 53%
    03:00 +12°C° 0 mm 2 mps 747 mmHg 54%
    04:00 +12°C° 0 mm 2 mps 747 mmHg 55%
    05:00 +10°C° 0 mm 2 mps 747 mmHg 55%
    06:00 +12°C° 0 mm 2 mps 747 mmHg 55%
    07:00 +13°C° 0 mm 2 mps 748 mmHg 54%
    08:00 +14°C° 0 mm 1 mps 748 mmHg 53%
    09:00 +16°C° 0 mm 2 mps 749 mmHg 47%
    10:00 +18°C° 0 mm 2 mps 749 mmHg 41%
    11:00 +21°C° 0 mm 2 mps 749 mmHg 35%
    12:00 +23°C° 0 mm 2 mps 748 mmHg 32%
    13:00 +24°C° 0 mm 2 mps 748 mmHg 30%
    14:00 +25°C° 0 mm 2 mps 747 mmHg 28%
    15:00 +23°C° 0 mm 2 mps 747 mmHg 32%
    16:00 +20°C° 0 mm 2 mps 747 mmHg 36%
    17:00 +20°C° 0 mm 1 mps 747 mmHg 40%
    18:00 +19°C° 0 mm 1 mps 747 mmHg 41%
    19:00 +18°C° 0 mm 1 mps 747 mmHg 43%
    20:00 +16°C° 0 mm 1 mps 748 mmHg 44%
    21:00 +15°C° 0 mm 1 mps 748 mmHg 45%
    22:00 +14°C° 0 mm 1 mps 747 mmHg 47%
    23:00 +13°C° 0 mm 0 mps 747 mmHg 48%

    22 January, Monday

    Time Temperature Precipitation Wind Pressure Humidity
    00:00 +13°C° 0 mm 0 mps 747 mmHg 49%
    01:00 +12°C° 0 mm 0 mps 747 mmHg 50%
    02:00 +12°C° 0 mm 0 mps 747 mmHg 51%
    03:00 +11°C° 0 mm 0 mps 747 mmHg 52%
    04:00 +11°C° 0 mm 0 mps 746 mmHg 53%
    05:00 +12°C° 0 mm 1 mps 746 mmHg 53%
    06:00 +12°C° 0 mm 0 mps 747 mmHg 52%
    07:00 +13°C° 0 mm 0 mps 748 mmHg 50%
    08:00 +14°C° 0 mm 0 mps 748 mmHg 49%
    09:00 +16°C° 0 mm 0 mps 749 mmHg 44%
    10:00 +18°C° 0 mm 0 mps 749 mmHg 39%
    11:00 +20°C° 0 mm 0 mps 749 mmHg 35%
    12:00 +21°C° 0 mm 0 mps 748 mmHg 32%
    13:00 +22°C° 0 mm 0 mps 747 mmHg 30%
    14:00 +23°C° 0 mm 0 mps 746 mmHg 27%
    15:00 +21°C° 0 mm 0 mps 746 mmHg 31%
    16:00 +20°C° 0 mm 0 mps 746 mmHg 35%
    17:00 +18°C° 0 mm 0 mps 745 mmHg 39%
    18:00 +17°C° 0 mm 0 mps 746 mmHg 40%
    19:00 +16°C° 0 mm 0 mps 746 mmHg 41%
    20:00 +15°C° 0 mm 0 mps 746 mmHg 42%
    21:00 +14°C° 0 mm 0 mps 746 mmHg 43%
    22:00 +14°C° 0 mm 0 mps 746 mmHg 44%
    23:00 +14°C° 0 mm 0 mps 746 mmHg 46%
    Show more